N930F KLUK-KMIA

Flight info

Callsign N930F
Flight time 1h 59m
Altitude 41000
Route KENLN ARTUR PLYRR CRG DEBRL CSTAL3
Aircraft CL60/M-SBDE1E2E3FGHIJ1J4J5J7M3RWXYZ/LB1V1D1

Departure

Time 2026-04-22 16:41
Airport Cincinnati Municipal Airport Lunken Field (KLUK)

Arrival

Time 2026-04-22 18:41
Airport Miami International Airport (KMIA)
Time Latitude Longitude Altitude Speed Heading
2026-04-22 16:14 39.10543 -84.42653 488 ft 0 kts 245°
2026-04-22 16:33 39.10531 -84.42683 488 ft 2 kts 244°
2026-04-22 16:33 39.10517 -84.42711 489 ft 4 kts 233°
2026-04-22 16:33 39.10477 -84.42739 489 ft 7 kts 180°
2026-04-22 16:34 39.10437 -84.42721 489 ft 4 kts 153°
2026-04-22 16:34 39.10432 -84.42718 489 ft 0 kts 153°
2026-04-22 16:36 39.10408 -84.42710 489 ft 0 kts 174°
2026-04-22 16:36 39.10428 -84.42638 488 ft 13 kts 60°
2026-04-22 16:36 39.10482 -84.42513 486 ft 18 kts 61°
2026-04-22 16:36 39.10551 -84.42349 483 ft 23 kts 62°
2026-04-22 16:37 39.10637 -84.42142 476 ft 28 kts 63°
2026-04-22 16:37 39.10697 -84.41992 476 ft 19 kts 61°
2026-04-22 16:37 39.10771 -84.41819 473 ft 24 kts 62°
2026-04-22 16:37 39.10851 -84.41621 474 ft 19 kts 63°
2026-04-22 16:38 39.10910 -84.41476 476 ft 14 kts 63°
2026-04-22 16:38 39.10948 -84.41385 477 ft 11 kts 62°
2026-04-22 16:38 39.10959 -84.41315 477 ft 6 kts 114°
2026-04-22 16:38 39.10921 -84.41280 477 ft 7 kts 155°
2026-04-22 16:39 39.10864 -84.41245 477 ft 8 kts 150°
2026-04-22 16:39 39.10862 -84.41242 477 ft 0 kts 150°
2026-04-22 16:40 39.10813 -84.41209 477 ft 4 kts 157°
2026-04-22 16:40 39.10783 -84.41206 478 ft 1 kts 193°
2026-04-22 16:40 39.10346 -84.41423 480 ft 97 kts 201°
2026-04-22 16:41 39.09669 -84.41757 485 ft 116 kts 201°
2026-04-22 16:41 39.08737 -84.42207 771 ft 161 kts 203°
2026-04-22 16:41 39.07661 -84.42695 1612 ft 174 kts 200°
2026-04-22 16:41 39.06428 -84.42780 2713 ft 191 kts 178°
2026-04-22 16:42 39.05092 -84.42409 3808 ft 210 kts 173°
2026-04-22 16:42 39.03712 -84.42136 5116 ft 208 kts 186°
2026-04-22 16:42 39.02205 -84.42244 6025 ft 231 kts 188°
2026-04-22 16:42 39.00523 -84.42412 6733 ft 257 kts 191°
2026-04-22 16:43 38.98671 -84.42718 6530 ft 274 kts 192°
2026-04-22 16:43 38.96783 -84.43041 6198 ft 269 kts 192°
2026-04-22 16:43 38.94895 -84.43356 6342 ft 290 kts 192°
2026-04-22 16:43 38.92903 -84.43681 7749 ft 294 kts 191°
2026-04-22 16:44 38.90939 -84.43991 9447 ft 286 kts 191°
2026-04-22 16:44 38.88992 -84.44299 10850 ft 288 kts 191°
2026-04-22 16:44 38.87023 -84.44609 12122 ft 294 kts 191°
2026-04-22 16:44 38.84987 -84.44926 13369 ft 299 kts 191°
2026-04-22 16:45 38.82933 -84.45245 14527 ft 305 kts 191°
2026-04-22 16:45 38.80822 -84.45569 15610 ft 312 kts 191°
2026-04-22 16:45 38.78664 -84.45898 16665 ft 318 kts 191°
2026-04-22 16:45 38.76469 -84.46230 17675 ft 324 kts 190°
2026-04-22 16:46 38.74227 -84.46568 18642 ft 330 kts 190°
2026-04-22 16:46 38.71957 -84.46909 19586 ft 334 kts 190°
2026-04-22 16:46 38.69644 -84.47255 20476 ft 340 kts 190°
2026-04-22 16:46 38.67283 -84.47607 21336 ft 346 kts 190°
2026-04-22 16:47 38.64882 -84.47964 22167 ft 351 kts 190°
2026-04-22 16:47 38.62416 -84.48330 22989 ft 357 kts 190°
2026-04-22 16:47 38.59952 -84.48695 23758 ft 363 kts 190°
2026-04-22 16:47 38.57449 -84.49065 24522 ft 368 kts 190°
2026-04-22 16:48 38.54884 -84.49443 25258 ft 374 kts 190°
2026-04-22 16:48 38.52261 -84.49828 25976 ft 379 kts 190°
2026-04-22 16:48 38.49622 -84.50216 26660 ft 384 kts 189°
2026-04-22 16:48 38.46951 -84.50564 27314 ft 390 kts 185°
2026-04-22 16:49 38.44207 -84.50191 27928 ft 398 kts 166°
2026-04-22 16:49 38.41490 -84.49165 28483 ft 405 kts 163°
2026-04-22 16:49 38.38741 -84.48100 29099 ft 409 kts 164°
2026-04-22 16:49 38.35961 -84.47029 29669 ft 413 kts 163°
2026-04-22 16:50 38.33139 -84.45943 30240 ft 418 kts 163°
2026-04-22 16:50 38.30312 -84.44855 30856 ft 420 kts 163°
2026-04-22 16:50 38.27513 -84.43780 31405 ft 423 kts 163°
2026-04-22 16:50 38.24612 -84.42666 31981 ft 426 kts 163°
2026-04-22 16:51 38.21749 -84.41569 32493 ft 429 kts 163°
2026-04-22 16:51 38.18864 -84.40463 32943 ft 432 kts 163°
2026-04-22 16:51 38.15922 -84.39337 33389 ft 436 kts 163°
2026-04-22 16:51 38.12988 -84.38215 33844 ft 438 kts 163°
2026-04-22 16:52 38.10066 -84.37099 34386 ft 438 kts 163°
2026-04-22 16:52 38.07112 -84.35971 35005 ft 436 kts 163°
2026-04-22 16:52 38.04221 -84.34869 35598 ft 434 kts 163°
2026-04-22 16:52 38.01333 -84.33768 36164 ft 433 kts 163°
2026-04-22 16:53 37.98433 -84.32664 36674 ft 432 kts 163°
2026-04-22 16:53 37.95548 -84.31567 37133 ft 431 kts 163°
2026-04-22 16:53 37.92686 -84.30479 37531 ft 432 kts 163°
2026-04-22 16:53 37.89809 -84.29386 37919 ft 432 kts 163°
2026-04-22 16:54 37.86918 -84.28290 38269 ft 432 kts 163°
2026-04-22 16:54 37.84013 -84.27188 38597 ft 432 kts 163°
2026-04-22 16:54 37.81151 -84.26104 38917 ft 433 kts 163°
2026-04-22 16:54 37.78260 -84.25010 39219 ft 433 kts 163°
2026-04-22 16:55 37.75400 -84.23929 39503 ft 433 kts 163°
2026-04-22 16:55 37.72499 -84.22832 39779 ft 433 kts 163°
2026-04-22 16:55 37.69615 -84.21743 40032 ft 433 kts 163°
2026-04-22 16:55 37.66744 -84.20660 40303 ft 433 kts 163°
2026-04-22 16:56 37.63835 -84.19563 40578 ft 432 kts 163°
2026-04-22 16:56 37.60947 -84.18476 40816 ft 431 kts 163°
2026-04-22 16:56 37.58101 -84.17405 41024 ft 431 kts 164°
2026-04-22 16:56 37.55225 -84.16323 41202 ft 432 kts 164°
2026-04-22 16:57 37.52307 -84.15228 41179 ft 435 kts 164°
2026-04-22 16:57 37.46511 -84.13052 41181 ft 436 kts 164°
2026-04-22 16:58 37.41691 -84.11247 41195 ft 432 kts 164°
2026-04-22 16:58 37.34968 -84.08731 41185 ft 430 kts 164°
2026-04-22 16:59 37.29226 -84.06587 41192 ft 430 kts 164°
2026-04-22 16:59 37.23512 -84.04456 41200 ft 430 kts 164°
2026-04-22 17:00 37.17748 -84.02310 41215 ft 430 kts 164°
2026-04-22 17:00 37.09146 -83.99115 41223 ft 430 kts 164°
2026-04-22 17:01 37.03384 -83.96979 41220 ft 431 kts 164°
2026-04-22 17:01 36.97639 -83.94852 41218 ft 430 kts 164°
2026-04-22 17:02 36.91919 -83.92738 41210 ft 429 kts 164°
2026-04-22 17:02 36.86191 -83.90623 41208 ft 428 kts 164°
2026-04-22 17:03 36.80463 -83.88512 41212 ft 428 kts 164°
2026-04-22 17:03 36.74761 -83.86415 41217 ft 428 kts 164°
2026-04-22 17:04 36.69056 -83.84319 41212 ft 428 kts 164°
2026-04-22 17:04 36.63348 -83.82226 41211 ft 428 kts 164°
2026-04-22 17:05 36.57625 -83.80130 41207 ft 427 kts 164°
2026-04-22 17:05 36.51918 -83.77969 41208 ft 427 kts 161°
2026-04-22 17:06 36.46301 -83.75538 41209 ft 427 kts 161°
2026-04-22 17:06 36.40705 -83.73121 41210 ft 426 kts 161°
2026-04-22 17:07 36.35092 -83.70701 41217 ft 431 kts 161°
2026-04-22 17:07 36.29339 -83.68225 41220 ft 441 kts 161°
2026-04-22 17:08 36.23488 -83.65712 41217 ft 450 kts 161°
2026-04-22 17:08 36.17545 -83.63163 41218 ft 458 kts 161°
2026-04-22 17:09 36.11457 -83.60557 41212 ft 466 kts 161°
2026-04-22 17:09 36.05300 -83.57926 41224 ft 472 kts 161°
2026-04-22 17:10 35.99007 -83.55241 41226 ft 478 kts 161°
2026-04-22 17:10 35.92710 -83.52560 41241 ft 483 kts 161°
2026-04-22 17:11 35.86335 -83.49850 41241 ft 486 kts 161°
2026-04-22 17:11 35.79905 -83.47121 41259 ft 489 kts 161°
2026-04-22 17:12 35.73434 -83.44379 41250 ft 494 kts 161°
2026-04-22 17:12 35.66875 -83.41606 41253 ft 498 kts 161°
2026-04-22 17:13 35.60315 -83.38837 41254 ft 502 kts 161°
2026-04-22 17:13 35.53706 -83.36051 41256 ft 503 kts 161°
2026-04-22 17:14 35.47071 -83.33260 41265 ft 501 kts 162°
2026-04-22 17:14 35.40489 -83.30496 41259 ft 500 kts 162°
2026-04-22 17:15 35.33899 -83.27733 41275 ft 500 kts 162°
2026-04-22 17:15 35.27325 -83.24982 41270 ft 499 kts 162°
2026-04-22 17:16 35.20714 -83.22220 41277 ft 499 kts 162°
2026-04-22 17:16 35.14175 -83.19492 41273 ft 499 kts 162°
2026-04-22 17:17 35.07571 -83.16743 41268 ft 499 kts 162°
2026-04-22 17:17 35.01018 -83.14019 41259 ft 498 kts 162°
2026-04-22 17:18 34.94414 -83.11279 41227 ft 499 kts 162°
2026-04-22 17:18 34.87827 -83.08549 41230 ft 498 kts 162°
2026-04-22 17:19 34.74676 -83.03116 41221 ft 499 kts 162°
2026-04-22 17:20 34.61553 -82.97711 41209 ft 499 kts 162°
2026-04-22 17:21 34.51650 -82.93645 41218 ft 499 kts 163°
2026-04-22 17:22 34.41786 -82.89605 41211 ft 500 kts 163°
2026-04-22 17:23 34.31879 -82.85557 41213 ft 500 kts 163°
2026-04-22 17:23 34.21976 -82.81521 41228 ft 500 kts 163°
2026-04-22 17:24 34.15414 -82.78852 41233 ft 500 kts 163°
2026-04-22 17:24 34.08787 -82.76161 41225 ft 500 kts 163°
2026-04-22 17:25 34.02178 -82.73483 41223 ft 500 kts 163°
2026-04-22 17:25 33.95596 -82.70819 41226 ft 501 kts 163°
2026-04-22 17:26 33.88953 -82.68135 41232 ft 502 kts 163°
2026-04-22 17:26 33.82334 -82.65466 41231 ft 502 kts 163°
2026-04-22 17:27 33.75664 -82.63084 41225 ft 500 kts 166°
2026-04-22 17:27 33.68979 -82.60810 41239 ft 499 kts 166°
2026-04-22 17:28 33.62292 -82.58537 41241 ft 499 kts 166°
2026-04-22 17:28 33.55622 -82.56274 41262 ft 499 kts 166°
2026-04-22 17:29 33.48948 -82.54012 41254 ft 499 kts 166°
2026-04-22 17:29 33.42238 -82.51739 41246 ft 499 kts 166°
2026-04-22 17:30 33.35556 -82.49480 41238 ft 499 kts 167°
2026-04-22 17:30 33.28915 -82.47239 41233 ft 499 kts 167°
2026-04-22 17:31 33.22220 -82.44983 41224 ft 499 kts 167°
2026-04-22 17:31 33.15532 -82.42731 41215 ft 498 kts 167°
2026-04-22 17:32 33.08873 -82.40494 41209 ft 498 kts 167°
2026-04-22 17:32 33.02188 -82.38251 41238 ft 498 kts 167°
2026-04-22 17:33 32.95513 -82.36016 41226 ft 498 kts 167°
2026-04-22 17:33 32.88808 -82.33773 41226 ft 497 kts 168°
2026-04-22 17:34 32.82127 -82.31542 41230 ft 497 kts 168°
2026-04-22 17:34 32.75451 -82.29316 41223 ft 497 kts 168°
2026-04-22 17:35 32.68814 -82.27106 41225 ft 498 kts 168°
2026-04-22 17:35 32.62144 -82.24889 41223 ft 498 kts 168°
2026-04-22 17:36 32.55454 -82.22669 41234 ft 498 kts 168°
2026-04-22 17:36 32.48786 -82.20460 41231 ft 498 kts 168°
2026-04-22 17:37 32.42141 -82.18261 41243 ft 497 kts 168°
2026-04-22 17:37 32.35450 -82.16051 41235 ft 498 kts 168°
2026-04-22 17:38 32.28784 -82.13853 41237 ft 498 kts 169°
2026-04-22 17:38 32.22101 -82.11651 41238 ft 497 kts 169°
2026-04-22 17:39 32.15443 -82.09462 41247 ft 497 kts 169°
2026-04-22 17:40 32.05499 -82.06198 41241 ft 496 kts 169°
2026-04-22 17:40 31.98835 -82.04015 41239 ft 496 kts 169°
2026-04-22 17:41 31.92187 -82.01841 41233 ft 496 kts 169°
2026-04-22 17:41 31.85515 -81.99662 41222 ft 497 kts 169°
2026-04-22 17:42 31.78843 -81.97486 41223 ft 497 kts 169°
2026-04-22 17:42 31.72179 -81.95316 41230 ft 496 kts 169°
2026-04-22 17:43 31.65527 -81.93152 41248 ft 495 kts 169°
2026-04-22 17:43 31.58891 -81.90997 41265 ft 495 kts 170°
2026-04-22 17:44 31.52245 -81.88844 41266 ft 496 kts 170°
2026-04-22 17:44 31.45594 -81.86691 41250 ft 497 kts 170°
2026-04-22 17:45 31.38943 -81.84541 41242 ft 496 kts 170°
2026-04-22 17:45 31.32296 -81.82395 41226 ft 495 kts 170°
2026-04-22 17:46 31.25629 -81.80246 41224 ft 495 kts 170°
2026-04-22 17:46 31.19006 -81.78114 41230 ft 495 kts 170°
2026-04-22 17:47 31.12345 -81.75974 41231 ft 495 kts 171°
2026-04-22 17:47 31.05724 -81.73850 41237 ft 495 kts 171°
2026-04-22 17:48 31.00175 -81.72072 41230 ft 495 kts 171°
2026-04-22 17:48 30.92413 -81.69588 41229 ft 495 kts 171°
2026-04-22 17:49 30.85760 -81.67463 41230 ft 494 kts 171°
2026-04-22 17:49 30.79125 -81.65346 41237 ft 494 kts 171°
2026-04-22 17:50 30.72534 -81.63246 41248 ft 494 kts 171°
2026-04-22 17:50 30.65869 -81.61126 41255 ft 494 kts 171°
2026-04-22 17:51 30.59271 -81.59030 41258 ft 494 kts 171°
2026-04-22 17:51 30.52628 -81.56923 41258 ft 494 kts 171°
2026-04-22 17:52 30.45987 -81.54820 41252 ft 494 kts 171°
2026-04-22 17:52 30.39365 -81.52725 41251 ft 493 kts 171°
2026-04-22 17:53 30.32743 -81.50588 41247 ft 494 kts 169°
2026-04-22 17:53 30.26173 -81.48195 41245 ft 494 kts 169°
2026-04-22 17:54 30.19611 -81.45805 41253 ft 494 kts 169°
2026-04-22 17:54 30.13078 -81.43431 41249 ft 494 kts 169°
2026-04-22 17:55 30.07601 -81.41443 41248 ft 495 kts 169°
2026-04-22 17:55 29.99939 -81.38665 41253 ft 494 kts 169°
2026-04-22 17:56 29.93385 -81.36294 41248 ft 493 kts 169°
2026-04-22 17:56 29.86824 -81.33923 41249 ft 491 kts 169°
2026-04-22 17:57 29.80292 -81.31566 41237 ft 491 kts 169°
2026-04-22 17:57 29.73766 -81.29215 41243 ft 492 kts 169°
2026-04-22 17:58 29.67244 -81.26869 41242 ft 492 kts 169°
2026-04-22 17:58 29.60694 -81.24516 41246 ft 492 kts 169°
2026-04-22 17:59 29.54141 -81.22165 41251 ft 492 kts 169°
2026-04-22 17:59 29.47616 -81.19827 41251 ft 492 kts 169°
2026-04-22 18:00 29.42156 -81.17874 41255 ft 492 kts 169°
2026-04-22 18:00 29.34545 -81.15154 41248 ft 493 kts 170°
2026-04-22 18:01 29.27985 -81.12792 41258 ft 494 kts 169°
2026-04-22 18:01 29.21437 -81.10332 41256 ft 494 kts 169°
2026-04-22 18:02 29.14900 -81.07879 41259 ft 494 kts 169°
2026-04-22 18:02 29.08398 -81.05443 41257 ft 494 kts 169°
2026-04-22 18:03 29.01863 -81.02998 41256 ft 494 kts 169°
2026-04-22 18:03 28.95276 -81.00538 41250 ft 496 kts 169°
2026-04-22 18:04 28.88749 -80.98102 41236 ft 493 kts 169°
2026-04-22 18:04 28.82219 -80.95669 41233 ft 492 kts 169°
2026-04-22 18:05 28.75707 -80.93201 41227 ft 495 kts 166°
2026-04-22 18:05 28.69318 -80.90176 41235 ft 498 kts 165°
2026-04-22 18:06 28.62990 -80.87151 41248 ft 500 kts 164°
2026-04-22 18:06 28.56564 -80.84085 41250 ft 501 kts 165°
2026-04-22 18:07 28.50155 -80.81032 41242 ft 501 kts 165°
2026-04-22 18:07 28.43704 -80.77965 41236 ft 502 kts 165°
2026-04-22 18:08 28.37253 -80.74902 41232 ft 501 kts 165°
2026-04-22 18:08 28.30778 -80.71835 41234 ft 502 kts 165°
2026-04-22 18:09 28.24342 -80.68790 41228 ft 503 kts 165°
2026-04-22 18:09 28.17770 -80.66221 41219 ft 494 kts 173°
2026-04-22 18:10 28.11098 -80.64232 41228 ft 495 kts 173°
2026-04-22 18:10 28.04441 -80.62241 41225 ft 495 kts 173°
2026-04-22 18:11 27.97796 -80.60253 41221 ft 494 kts 173°
2026-04-22 18:11 27.91131 -80.58263 41221 ft 494 kts 173°
2026-04-22 18:12 27.84439 -80.56266 41228 ft 495 kts 173°
2026-04-22 18:12 27.78894 -80.54616 40857 ft 503 kts 173°
2026-04-22 18:12 27.74340 -80.53260 40020 ft 503 kts 173°
2026-04-22 18:13 27.70981 -80.52258 39415 ft 500 kts 173°
2026-04-22 18:13 27.67649 -80.51264 38783 ft 499 kts 173°
2026-04-22 18:13 27.64306 -80.50165 38147 ft 504 kts 169°
2026-04-22 18:13 27.60971 -80.48846 37466 ft 505 kts 168°
2026-04-22 18:14 27.57683 -80.47533 36818 ft 505 kts 168°
2026-04-22 18:14 27.54358 -80.46211 36142 ft 505 kts 168°
2026-04-22 18:14 27.51006 -80.44879 35462 ft 505 kts 168°
2026-04-22 18:14 27.47684 -80.43560 34785 ft 505 kts 167°
2026-04-22 18:15 27.44366 -80.42245 34118 ft 506 kts 167°
2026-04-22 18:15 27.41063 -80.40937 33446 ft 506 kts 167°
2026-04-22 18:15 27.37735 -80.39618 32778 ft 502 kts 167°
2026-04-22 18:15 27.34475 -80.38326 32111 ft 497 kts 167°
2026-04-22 18:16 27.31207 -80.37032 31453 ft 491 kts 167°
2026-04-22 18:16 27.28030 -80.35776 30805 ft 485 kts 167°
2026-04-22 18:16 27.24832 -80.34512 30161 ft 479 kts 167°
2026-04-22 18:16 27.21711 -80.33281 29520 ft 473 kts 167°
2026-04-22 18:17 27.18627 -80.32075 28910 ft 467 kts 167°
2026-04-22 18:17 27.15565 -80.30883 28298 ft 462 kts 167°
2026-04-22 18:17 27.12559 -80.29715 27706 ft 458 kts 167°
2026-04-22 18:17 27.09529 -80.28538 27076 ft 454 kts 167°
2026-04-22 18:18 27.06569 -80.27389 26479 ft 450 kts 166°
2026-04-22 18:18 27.03611 -80.26242 25883 ft 447 kts 166°
2026-04-22 18:18 27.00691 -80.25110 25293 ft 444 kts 166°
2026-04-22 18:18 26.97767 -80.23978 24715 ft 441 kts 166°
2026-04-22 18:19 26.94882 -80.22860 24329 ft 436 kts 166°
2026-04-22 18:19 26.92010 -80.21749 24229 ft 436 kts 165°
2026-04-22 18:19 26.89136 -80.20638 24219 ft 435 kts 166°
2026-04-22 18:19 26.86296 -80.19544 24221 ft 436 kts 166°
2026-04-22 18:20 26.83434 -80.18471 24025 ft 426 kts 166°
2026-04-22 18:20 26.80614 -80.17426 23441 ft 428 kts 166°
2026-04-22 18:20 26.77769 -80.16375 22764 ft 431 kts 165°
2026-04-22 18:20 26.74901 -80.15316 21833 ft 441 kts 165°
2026-04-22 18:21 26.71965 -80.14237 21057 ft 443 kts 166°
2026-04-22 18:21 26.69000 -80.13333 20473 ft 440 kts 169°
2026-04-22 18:21 26.66007 -80.12527 19955 ft 436 kts 169°
2026-04-22 18:21 26.63099 -80.11739 19479 ft 432 kts 169°
2026-04-22 18:22 26.60163 -80.10946 19028 ft 427 kts 169°
2026-04-22 18:22 26.57266 -80.10207 18584 ft 423 kts 170°
2026-04-22 18:22 26.54436 -80.09502 18121 ft 419 kts 170°
2026-04-22 18:22 26.51563 -80.08786 17681 ft 416 kts 170°
2026-04-22 18:23 26.48753 -80.08086 17238 ft 413 kts 170°
2026-04-22 18:23 26.45947 -80.07410 16795 ft 410 kts 171°
2026-04-22 18:23 26.43192 -80.06821 16377 ft 407 kts 171°
2026-04-22 18:24 26.37648 -80.05517 15494 ft 404 kts 168°
2026-04-22 18:24 26.34928 -80.04771 15098 ft 401 kts 168°
2026-04-22 18:24 26.29548 -80.03301 14308 ft 397 kts 167°
2026-04-22 18:25 26.26860 -80.02602 13911 ft 395 kts 171°
2026-04-22 18:25 26.24108 -80.02520 13596 ft 388 kts 188°
2026-04-22 18:25 26.21506 -80.03076 13545 ft 377 kts 193°
2026-04-22 18:26 26.16451 -80.04234 13213 ft 366 kts 193°
2026-04-22 18:26 26.13963 -80.04801 12765 ft 361 kts 193°
2026-04-22 18:26 26.11516 -80.05359 12452 ft 351 kts 193°
2026-04-22 18:26 26.09164 -80.05895 12460 ft 335 kts 193°
2026-04-22 18:27 26.06908 -80.06423 12466 ft 322 kts 194°
2026-04-22 18:27 26.04763 -80.06976 12375 ft 315 kts 194°
2026-04-22 18:27 26.02604 -80.07536 12201 ft 312 kts 194°
2026-04-22 18:27 26.00509 -80.08079 11989 ft 311 kts 194°
2026-04-22 18:28 25.98396 -80.08627 11777 ft 310 kts 194°
2026-04-22 18:28 25.96281 -80.09175 11575 ft 310 kts 194°
2026-04-22 18:28 25.94170 -80.09725 11390 ft 308 kts 195°
2026-04-22 18:28 25.92211 -80.10609 11196 ft 305 kts 214°
2026-04-22 18:29 25.90630 -80.12195 10879 ft 303 kts 229°
2026-04-22 18:29 25.89248 -80.13920 10483 ft 301 kts 232°
2026-04-22 18:29 25.88202 -80.15897 10092 ft 297 kts 252°
2026-04-22 18:29 25.87867 -80.18149 9689 ft 294 kts 269°
2026-04-22 18:30 25.87816 -80.20409 9283 ft 294 kts 269°
2026-04-22 18:30 25.87670 -80.24949 8486 ft 296 kts 268°
2026-04-22 18:30 25.87595 -80.27249 8081 ft 296 kts 268°
2026-04-22 18:31 25.87520 -80.29524 7682 ft 295 kts 268°
2026-04-22 18:31 25.87446 -80.31797 7282 ft 295 kts 268°
2026-04-22 18:31 25.87372 -80.34059 6876 ft 296 kts 268°
2026-04-22 18:31 25.87297 -80.36337 6368 ft 296 kts 268°
2026-04-22 18:32 25.87235 -80.38611 5842 ft 294 kts 269°
2026-04-22 18:32 25.87199 -80.40885 5322 ft 293 kts 269°
2026-04-22 18:32 25.87160 -80.43091 5044 ft 277 kts 269°
2026-04-22 18:32 25.87122 -80.45136 4955 ft 258 kts 269°
2026-04-22 18:33 25.87082 -80.47134 4512 ft 261 kts 269°
2026-04-22 18:33 25.87039 -80.49159 4053 ft 263 kts 269°
2026-04-22 18:33 25.86996 -80.51188 3644 ft 264 kts 269°
2026-04-22 18:33 25.86955 -80.53215 3331 ft 260 kts 269°
2026-04-22 18:34 25.86747 -80.55186 3052 ft 258 kts 249°
2026-04-22 18:34 25.85730 -80.56745 2969 ft 243 kts 212°
2026-04-22 18:34 25.84204 -80.57336 2975 ft 229 kts 175°
2026-04-22 18:34 25.82717 -80.56937 2969 ft 220 kts 149°
2026-04-22 18:35 25.81401 -80.56039 2969 ft 219 kts 141°
2026-04-22 18:35 25.80147 -80.55073 2963 ft 219 kts 140°
2026-04-22 18:35 25.79209 -80.53819 2961 ft 212 kts 106°
2026-04-22 18:35 25.79174 -80.52213 2963 ft 210 kts 81°
2026-04-22 18:36 25.79385 -80.50609 2951 ft 208 kts 84°
2026-04-22 18:36 25.79489 -80.49042 2945 ft 200 kts 87°
2026-04-22 18:36 25.79556 -80.47506 2960 ft 198 kts 87°
2026-04-22 18:36 25.79620 -80.45993 2968 ft 192 kts 87°
2026-04-22 18:37 25.79680 -80.44574 2971 ft 173 kts 87°
2026-04-22 18:37 25.79732 -80.43350 2992 ft 150 kts 87°
2026-04-22 18:37 25.79781 -80.42200 2979 ft 145 kts 87°
2026-04-22 18:37 25.79828 -80.41092 2963 ft 143 kts 87°
2026-04-22 18:38 25.79874 -80.39992 2960 ft 142 kts 88°
2026-04-22 18:38 25.79920 -80.38910 2953 ft 142 kts 87°
2026-04-22 18:38 25.79986 -80.37813 2642 ft 138 kts 86°
2026-04-22 18:39 25.80049 -80.35767 1396 ft 133 kts 89°
2026-04-22 18:39 25.80068 -80.34796 888 ft 123 kts 87°
2026-04-22 18:39 25.80127 -80.33917 680 ft 109 kts 85°
2026-04-22 18:39 25.80174 -80.33089 526 ft 107 kts 86°
2026-04-22 18:40 25.80204 -80.32269 380 ft 107 kts 86°
2026-04-22 18:40 25.80240 -80.31458 263 ft 105 kts 86°
2026-04-22 18:40 25.80275 -80.30648 120 ft 104 kts 88°
2026-04-22 18:40 25.80304 -80.29871 15 ft 90 kts 87°
2026-04-22 18:41 25.80326 -80.29311 11 ft 46 kts 86°
2026-04-22 18:41 25.80338 -80.29030 11 ft 34 kts 86°
2026-04-22 18:41 25.80345 -80.28835 11 ft 22 kts 87°
2026-04-22 18:41 25.80367 -80.28663 11 ft 23 kts 68°
2026-04-22 18:42 25.80425 -80.28580 11 ft 10 kts 29°
2026-04-22 18:42 25.80467 -80.28632 11 ft 14 kts 266°
2026-04-22 18:42 25.80460 -80.28755 11 ft 11 kts 269°
2026-04-22 18:42 25.80529 -80.28798 11 ft 9 kts
2026-04-22 18:43 25.80568 -80.28818 11 ft 0 kts 317°